Погода в Старом Ханино

Россия / Тульская область     54°11′42″N   36°37′31″E
темп.,
°C
ветер,
м/с
пор.,
м/с
влажн.,
%
обл.,
%
осадки,
мм/ч
давл.,
гПа
погр.,
м
10 мая, пн
пн1000:00+3сз411835 0.0 1022181
03:00+2ссз410810 0.0 1024188
06:00+2с310780 0.0 1025227
09:00+8с59550 0.0 1026991
12:00+11ссв79430 0.0 10261487
15:00+12ссв79424 0.0 10261432
18:00+11ссв59592 0.0 10251077
21:00+6ссв4117689 0.0 1027213
11 мая, вт
вт1100:00+6ссв5147511 0.0 1026324
03:00+5ссв412825 0.0 1026260
06:00+5ссв514845 0.0 1026370
09:00+11св711755 0.0 1025486
12:00+16св710695 0.0 1024802
15:00+18всв796718 0.0 10231096
18:00+17в6117975 1.4 1024803
21:00+11юв499297 2.1 1026346
12 мая, ср
ср1200:00+8юв23955 0.0 102742
03:00+7вюв229145 0.0 102718
06:00+7всв249199 0.0 102798
09:00+9ссв1191100 0.3 102558
12:00+9сз1394100 1.1 1023218
15:00+8юз3697100 7.4 1020278
18:00+9ююв368852 2.4 1020539
21:00+6вюв37950 2.4 1021137
13 мая, чт
чт1300:00+6в5119561 0.0 1020243
03:00+8вюв5139396 0.1 1020339
06:00+9вюв51194100 0.1 1020333
09:00+12вюв4786100 0.4 1019463
12:00+16ююв4669100 0.4 10181074
15:00+18ююв47600 0.5 10181571
18:00+17ююв35714 0.1 1018635
21:00+12вюв228597 0.1 101820
14 мая, пт
пт1400:00+13вюв3780100 0.0 1018127
03:00+11вюв3892100 0.0 1018140
06:00+13вюв5119496 0.0 1017293
09:00+17вюв61179100 0.0 1016626
12:00+21юв71068100 0.0 10151257
15:00+22юв81268100 0.4 10141520
18:00+19юв6137941 1.8 1012497
21:00+16юв51193100 2.8 1012260